Hourly Data Report for April 24, 2021

MIRAMICHI RCS
NEW BRUNSWICK
Current Station Operator: ECCC - MSC

47°00'34.000" N
65°27'54.000" W
33.00 m
8100989
71744
ACQ

Download Data

Hourly Data (April 2021)
Hourly Data Report for April 24, 2021
TIME
LST
Temp Definition
°C
Dew Point Definition
°C
Rel Hum Definition
%
Precip. Amount Definition
mm

Wind Dir Definition
10's deg

Wind Spd Definition
km/h
Visibility Definition
km
Stn Press Definition
kPa
Hmdx Definition


Wind Chill Definition


Weather Definition


00:00 2.3 -2.0 74 LegendMM 24 12   99.37     LegendNANA
01:00 2.3 -2.0 73 LegendMM 25 9   99.36     LegendNANA
02:00 0.9 -2.2 80 LegendMM 25 8   99.33     LegendNANA
03:00 0.1 -2.1 85 LegendMM 26 7   99.34     LegendNANA
04:00 -0.8 -2.1 91 LegendMM 25 7   99.36   -3 LegendNANA
05:00 -0.6 -2.0 90 LegendMM 26 10   99.40   -4 LegendNANA
06:00 0.3 -2.4 83 LegendMM 25 15   99.49     LegendNANA
07:00 1.6 -2.1 76 LegendMM 24 12   99.58     LegendNANA
08:00 5.5 -2.0 58 LegendMM 27 15   99.65     LegendNANA
09:00 7.3 -2.3 50 LegendMM 30 20   99.68     LegendNANA
10:00 8.4 -1.9 48 LegendMM 30 19   99.79     LegendNANA
11:00 8.8 -2.5 45 LegendMM 28 22   99.86     LegendNANA
12:00 9.5 -2.1 44 LegendMM 30 25   99.92     LegendNANA
13:00 10.8 -1.8 41 LegendMM 31 19   99.94     LegendNANA
14:00 11.5 -2.4 38 LegendMM 30 23   99.95     LegendNANA
15:00 12.9 -1.7 36 LegendMM 31 20   99.98     LegendNANA
16:00 12.0 -2.5 36 LegendMM 29 19   100.07     LegendNANA
17:00 12.1 -2.7 35 LegendMM 31 17   100.16     LegendNANA
18:00 11.8 -2.1 38 LegendMM 32 9   100.21     LegendNANA
19:00 10.8 -1.7 42 LegendMM 32 4   100.29     LegendNANA
20:00 7.2 -0.2 59 LegendMM 15 2   100.36     LegendNANA
21:00 4.9 0.4 72 LegendMM 13 3   100.41     LegendNANA
22:00 3.7 -0.1 76 LegendMM 12 1   100.42     LegendNANA
23:00 2.0 0.0 87 LegendMM 23 2   100.44     LegendNANA

Notes on Data Quality.

Legend

  • E = Estimated
  • M = Missing
  • NA = Not Available*
  • [empty] = Indicates an unobserved value
Date modified: